AX503 Weather Reports


time (UTC)temp
C
wind
direction
speed
KPH
gust
KPH
rain 1hr
cm
rain 24hr
cm
rain mn
cm
humidity
%
barometer
mb
20260510094551 18 0 0.0 0.0 0.00 0.30 0.15 98 1014.5
20260510093040 18 0 0.0 0.0 0.00 0.30 0.15 98 1014.2
20260510091551 19 0 0.0 0.0 0.00 0.30 0.15 98 1014.2
20260510090046 19 0 0.0 0.0 0.00 0.30 0.15 98 1014.1
20260510084543 19 0 0.0 0.0 0.03 0.30 0.15 98 1014.0
20260510083055 18 0 0.0 0.0 0.03 0.30 0.15 98 1014.0
20260510081553 19 0 0.0 0.0 0.03 0.30 0.15 98 1013.6
20260510080051 19 0 0.0 0.0 0.03 0.30 0.15 98 1013.1
20260510074553 18 0 0.0 0.0 0.00 0.28 0.13 98 1013.5
20260510073111 19 0 0.0 0.0 0.00 0.28 0.13 98 1013.4
20260510071557 18 0 0.0 0.0 0.00 0.28 0.13 97 1013.4
20260510070050 19 0 0.0 0.0 0.03 0.28 0.13 97 1013.4
20260510064559 19 0 0.0 0.0 0.03 0.28 0.13 97 1013.5
20260510063055 19 0 0.0 0.0 0.03 0.28 0.13 97 1013.2
20260510061557 19 0 0.0 0.0 0.05 0.28 0.13 97 1013.6
20260510060053 19 0 0.0 0.0 0.05 0.25 0.10 97 1013.6
20260510054548 19 0 0.0 0.0 0.10 0.25 0.10 97 1013.9
20260510053049 19 0 0.0 0.0 0.10 0.25 0.10 97 1013.9
20260510051553 19 0 0.0 0.0 0.08 0.23 0.08 97 1013.8
20260510050052 19 0 0.0 0.0 0.03 0.18 0.03 97 1014.4
20260510044552 19 0 0.0 0.0 0.00 0.18 0.00 97 1014.2
20260510043104 19 0 0.0 0.0 0.00 0.18 0.00 97 1014.0
20260510041548 20 0 0.0 1.6 0.00 0.18 0.00 97 1014.0
20260510040053 20 0 0.0 0.0 0.00 0.18 0.00 97 1014.0
20260510034549 20 0 0.0 0.0 0.00 0.18 0.18 97 1013.9
20260510033053 20 0 0.0 1.6 0.00 0.18 0.18 97 1013.6
20260510031554 20 0 0.0 0.0 0.00 0.18 0.18 97 1013.6
20260510030048 20 0 0.0 0.0 0.00 0.18 0.18 97 1013.4
20260510024542 20 0 0.0 0.0 0.00 0.36 0.18 97 1013.2
20260510023048 20 0 0.0 0.0 0.00 0.36 0.18 97 1013.1
20260510021549 20 0 0.0 0.0 0.00 0.36 0.18 97 1013.0
20260510020040 20 0 0.0 0.0 0.00 0.36 0.18 97 1013.3
20260510014549 20 0 0.0 0.0 0.00 0.38 0.18 96 1013.1
20260510013051 20 0 0.0 0.0 0.00 0.38 0.18 96 1013.1
20260510011542 20 0 0.0 1.6 0.00 0.38 0.18 96 1013.1
20260510010049 20 0 0.0 1.6 0.00 0.38 0.18 96 1013.0
20260510004548 20 0 0.0 1.6 0.00 0.38 0.18 96 1012.9
20260510003051 20 0 0.0 0.0 0.00 0.38 0.18 96 1012.7
20260510001550 20 0 0.0 0.0 0.00 0.38 0.18 96 1012.6
20260510000052 20 0 0.0 0.0 0.00 0.38 0.18 96 1012.3
20260509234548 21 0 0.0 0.0 0.03 0.38 0.18 95 1011.9
20260509233053 21 0 0.0 0.0 0.03 0.38 0.18 95 1011.6
20260509231549 21 0 0.0 0.0 0.03 0.38 0.18 95 1011.8
20260509230045 21 0 0.0 0.0 0.03 0.38 0.18 95 1011.8
20260509224557 21 0 0.0 0.0 0.00 0.36 0.15 94 1011.7
20260509223049 21 0 0.0 0.0 0.03 0.36 0.15 94 1012.0
20260509221602 21 0 0.0 0.0 0.03 0.36 0.15 94 1011.6
20260509220050 21 0 0.0 0.0 0.05 0.36 0.15 93 1011.8
20260509214558 21 0 0.0 0.0 0.05 0.36 0.15 93 1011.8
20260509213049 21 0 0.0 0.0 0.03 0.33 0.13 93 1012.1
20260509211546 21 0 0.0 1.6 0.03 0.33 0.13 93 1012.1
20260509210046 21 0 0.0 1.6 0.00 0.30 0.10 92 1012.2
20260509204543 21 0 0.0 1.6 0.00 0.30 0.10 92 1012.4
20260509203049 21 0 0.0 3.2 0.03 0.30 0.10 92 1012.2
20260509201559 21 0 0.0 1.6 0.03 0.30 0.10 92 1012.2
20260509200057 21 0 0.0 1.6 0.03 0.30 0.10 93 1012.0
20260509194543 21 0 0.0 8.0 0.03 0.30 0.10 92 1012.1
20260509193043 21 0 0.0 3.2 0.00 0.28 0.08 92 1011.8
20260509191541 21 0 0.0 1.6 0.00 0.28 0.08 91 1011.6
20260509190101 22 0 0.0 4.8 0.03 0.28 0.08 91 1011.7
20260509184544 21 0 0.0 4.8 0.05 0.28 0.08 90 1012.1
20260509183044 22 0 0.0 6.4 0.05 0.28 0.08 88 1012.4
20260509181543 22 0 0.0 1.6 0.05 0.28 0.08 88 1012.9
20260509180045 22 0 0.0 1.6 0.03 0.25 0.05 86 1013.0
20260509174547 23 0 0.0 4.8 0.00 0.23 0.03 81 1012.9
20260509173047 24 0 0.0 1.6 0.00 0.23 0.03 80 1012.8
20260509171547 24 0 0.0 3.2 0.00 0.23 0.03 80 1012.8
20260509170044 24 0 0.0 4.8 0.00 0.23 0.03 80 1012.8
20260509164555 25 0 0.0 1.6 0.00 0.23 0.03 82 1012.7
20260509163051 25 0 0.0 4.8 0.00 0.23 0.03 81 1012.9
20260509161555 25 0 0.0 8.0 0.00 0.23 0.03 83 1012.8
20260509160049 25 0 0.0 4.8 0.00 0.23 0.03 82 1012.9
20260509154548 25 0 0.0 3.2 0.00 0.23 0.03 83 1012.8
20260509153055 24 0 0.0 4.8 0.00 0.23 0.03 85 1013.0
20260509151549 23 0 0.0 1.6 0.00 0.23 0.03 87 1013.3
20260509150051 23 0 0.0 4.8 0.00 0.23 0.03 88 1013.1
20260509144543 22 0 0.0 1.6 0.00 0.23 0.03 90 1013.6
20260509143044 22 223 0.0 1.6 0.00 0.23 0.03 90 1013.4
20260509141542 22 0 0.0 3.2 0.00 0.23 0.03 93 1013.4
20260509140059 22 0 0.0 4.8 0.00 0.23 0.03 93 1013.4
20260509134607 22 0 0.0 1.6 0.00 0.23 0.03 93 1013.3
20260509133050 22 0 0.0 1.6 0.00 0.23 0.03 94 1013.3
20260509131553 22 0 0.0 0.0 0.00 0.23 0.03 94 1013.2
20260509130048 22 0 0.0 1.6 0.00 0.23 0.03 94 1013.2
20260509124545 22 0 0.0 0.0 0.00 0.23 0.03 96 1013.0
20260509123052 21 0 0.0 0.0 0.00 0.23 0.03 97 1013.0
20260509121549 21 0 0.0 0.0 0.00 0.23 0.03 96 1012.8
20260509120043 20 0 0.0 0.0 0.00 0.23 0.03 97 1012.6
20260509114544 19 0 0.0 0.0 0.00 0.23 0.03 97 1012.7
20260509113053 18 0 0.0 0.0 0.00 0.23 0.03 98 1012.9
20260509111551 18 0 0.0 0.0 0.00 0.23 0.03 98 1012.4
20260509110046 18 0 0.0 0.0 0.00 0.23 0.03 98 1012.3
20260509104542 18 0 0.0 0.0 0.00 0.23 0.03 98 1012.0
20260509103053 18 0 0.0 0.0 0.00 0.23 0.03 98 1011.7
20260509101554 18 0 0.0 0.0 0.00 0.23 0.03 97 1011.4
20260509100042 18 0 0.0 0.0 0.00 0.23 0.03 97 1011.3